• Em Portugal
  • Lista de países
  • Para 7 dias
  • Temperatura da água
  • Mapas de satélite
  • Mapa do tempo
  • Widgets de tempo
  • user-avatar
    Iniciar Sessão

    Previsão horária em Kalat

    Hoje, 25 Setembro, Segunda-feira

    Tempo Temperatura Precipitação Vento Pressão Humidade
    00:00 +1°C° 0 mm 2 m/s 478 mmHg 62%
    01:00 +1°C° 0 mm 2 m/s 478 mmHg 63%
    02:00 -1°C° 0 mm 2 m/s 477 mmHg 64%
    03:00 -1°C° 0 mm 2 m/s 477 mmHg 64%
    04:00 -1°C° 0 mm 2 m/s 477 mmHg 63%
    05:00 -2°C° 0 mm 2 m/s 477 mmHg 63%
    06:00 -1°C° 0 mm 2 m/s 477 mmHg 57%
    07:00 +1°C° 0 mm 2 m/s 478 mmHg 51%
    08:00 +1°C° 0 mm 2 m/s 478 mmHg 46%
    09:00 +3°C° 0 mm 2 m/s 479 mmHg 40%
    10:00 +3°C° 0 mm 3 m/s 480 mmHg 34%
    11:00 +4°C° 0 mm 3 m/s 481 mmHg 28%
    12:00 +5°C° 0 mm 3 m/s 481 mmHg 27%
    13:00 +5°C° 0 mm 3 m/s 481 mmHg 27%
    14:00 +7°C° 0 mm 3 m/s 481 mmHg 26%
    15:00 +5°C° 0 mm 3 m/s 481 mmHg 28%
    16:00 +5°C° 0 mm 3 m/s 480 mmHg 29%
    17:00 +4°C° 0 mm 3 m/s 480 mmHg 31%
    18:00 +3°C° 0 mm 3 m/s 480 mmHg 34%
    19:00 +2°C° 0 mm 3 m/s 479 mmHg 38%
    20:00 +2°C° 0 mm 2 m/s 479 mmHg 42%
    21:00 +2°C° 0 mm 2 m/s 478 mmHg 43%
    22:00 +1°C° 0 mm 2 m/s 478 mmHg 45%
    23:00 +1°C° 0 mm 2 m/s 478 mmHg 46%

    Amanhã, 26 Setembro, Terça-feira

    Tempo Temperatura Precipitação Vento Pressão Humidade
    00:00 +1°C° 0 mm 2 m/s 478 mmHg 46%
    01:00 -1°C° 0 mm 2 m/s 477 mmHg 45%
    02:00 -1°C° 0 mm 2 m/s 477 mmHg 45%
    03:00 -1°C° 0 mm 2 m/s 477 mmHg 44%
    04:00 -1°C° 0 mm 2 m/s 477 mmHg 42%
    05:00 -1°C° 0 mm 2 m/s 477 mmHg 41%
    06:00 +1°C° 0 mm 2 m/s 478 mmHg 36%
    07:00 +2°C° 0 mm 2 m/s 478 mmHg 31%
    08:00 +3°C° 0 mm 2 m/s 479 mmHg 25%
    09:00 +5°C° 0 mm 1 m/s 480 mmHg 22%
    10:00 +6°C° 0 mm 1 m/s 481 mmHg 19%
    11:00 +8°C° 0 mm 1 m/s 482 mmHg 16%
    12:00 +7°C° 0 mm 2 m/s 482 mmHg 16%
    13:00 +8°C° 0 mm 2 m/s 482 mmHg 17%
    14:00 +9°C° 0 mm 2 m/s 483 mmHg 17%
    15:00 +9°C° 0 mm 2 m/s 482 mmHg 19%
    16:00 +8°C° 0 mm 2 m/s 482 mmHg 20%
    17:00 +8°C° 0 mm 3 m/s 482 mmHg 22%
    18:00 +7°C° 0 mm 2 m/s 481 mmHg 27%
    19:00 +6°C° 0 mm 2 m/s 481 mmHg 32%
    20:00 +5°C° 0 mm 1 m/s 480 mmHg 38%
    21:00 +5°C° 0 mm 1 m/s 480 mmHg 39%
    22:00 +4°C° 0 mm 1 m/s 480 mmHg 40%
    23:00 +4°C° 0 mm 1 m/s 479 mmHg 41%

    Depois de amanhã, 27 Setembro, Quarta-feira

    Tempo Temperatura Precipitação Vento Pressão Humidade
    00:00 +4°C° 0 mm 1 m/s 479 mmHg 40%
    01:00 +3°C° 0 mm 1 m/s 479 mmHg 40%
    02:00 +3°C° 0 mm 1 m/s 479 mmHg 39%
    03:00 +3°C° 0 mm 1 m/s 478 mmHg 38%
    04:00 +1°C° 0 mm 2 m/s 478 mmHg 37%
    05:00 +1°C° 0 mm 2 m/s 478 mmHg 36%
    06:00 +2°C° 0 mm 2 m/s 479 mmHg 32%
    07:00 +3°C° 0 mm 2 m/s 480 mmHg 28%
    08:00 +4°C° 0 mm 2 m/s 481 mmHg 25%
    09:00 +5°C° 0 mm 2 m/s 481 mmHg 23%
    10:00 +6°C° 0 mm 2 m/s 482 mmHg 21%
    11:00 +7°C° 0 mm 2 m/s 483 mmHg 20%
    12:00 +8°C° 0 mm 3 m/s 483 mmHg 20%
    13:00 +8°C° 0 mm 3 m/s 483 mmHg 20%
    14:00 +9°C° 0 mm 3 m/s 483 mmHg 21%
    15:00 +8°C° 0 mm 3 m/s 483 mmHg 22%
    16:00 +8°C° 0 mm 3 m/s 482 mmHg 24%
    17:00 +7°C° 0 mm 3 m/s 482 mmHg 26%
    18:00 +5°C° 0 mm 3 m/s 482 mmHg 30%
    19:00 +5°C° 0 mm 2 m/s 481 mmHg 34%
    20:00 +4°C° 0 mm 2 m/s 481 mmHg 38%
    21:00 +4°C° 0 mm 2 m/s 480 mmHg 39%
    22:00 +3°C° 0 mm 2 m/s 480 mmHg 41%
    23:00 +3°C° 0 mm 2 m/s 480 mmHg 43%

    28 Setembro, Quinta-feira

    Tempo Temperatura Precipitação Vento Pressão Humidade
    00:00 +2°C° 0 mm 2 m/s 479 mmHg 42%
    01:00 +2°C° 0 mm 2 m/s 479 mmHg 41%
    02:00 +2°C° 0 mm 2 m/s 478 mmHg 41%
    03:00 +2°C° 0 mm 2 m/s 478 mmHg 39%
    04:00 +1°C° 0 mm 2 m/s 478 mmHg 37%
    05:00 +1°C° 0 mm 2 m/s 477 mmHg 35%
    06:00 +2°C° 0 mm 2 m/s 478 mmHg 31%
    07:00 +5°C° 0 mm 1 m/s 479 mmHg 26%
    08:00 +6°C° 0 mm 1 m/s 480 mmHg 22%
    09:00 +7°C° 0 mm 1 m/s 481 mmHg 20%
    10:00 +8°C° 0 mm 1 m/s 482 mmHg 17%
    11:00 +9°C° 0 mm 2 m/s 482 mmHg 15%
    12:00 +9°C° 0 mm 2 m/s 483 mmHg 16%
    13:00 +10°C° 0 mm 2 m/s 483 mmHg 16%
    14:00 +11°C° 0 mm 3 m/s 483 mmHg 16%
    15:00 +10°C° 0 mm 3 m/s 482 mmHg 17%
    16:00 +10°C° 0 mm 3 m/s 482 mmHg 19%
    17:00 +9°C° 0 mm 3 m/s 482 mmHg 20%
    18:00 +8°C° 0 mm 3 m/s 481 mmHg 25%
    19:00 +7°C° 0 mm 2 m/s 481 mmHg 29%
    20:00 +6°C° 0 mm 1 m/s 480 mmHg 34%
    21:00 +6°C° 0 mm 1 m/s 480 mmHg 35%
    22:00 +5°C° 0 mm 1 m/s 480 mmHg 36%
    23:00 +5°C° 0 mm 1 m/s 479 mmHg 37%

    29 Setembro, Sexta-feira

    Tempo Temperatura Precipitação Vento Pressão Humidade
    00:00 +3°C° 0 mm 2 m/s 479 mmHg 37%
    01:00 +3°C° 0 mm 2 m/s 479 mmHg 37%
    02:00 +2°C° 0 mm 2 m/s 478 mmHg 36%
    03:00 +2°C° 0 mm 2 m/s 478 mmHg 36%
    04:00 +2°C° 0 mm 2 m/s 478 mmHg 36%
    05:00 +1°C° 0 mm 2 m/s 478 mmHg 36%
    06:00 +2°C° 0 mm 2 m/s 478 mmHg 33%
    07:00 +3°C° 0 mm 2 m/s 479 mmHg 31%
    08:00 +2°C° 0 mm 3 m/s 480 mmHg 29%
    09:00 +3°C° 0 mm 3 m/s 480 mmHg 28%
    10:00 +4°C° 0 mm 3 m/s 481 mmHg 26%
    11:00 +6°C° 0 mm 2 m/s 481 mmHg 25%
    12:00 +7°C° 0 mm 3 m/s 482 mmHg 24%
    13:00 +7°C° 0 mm 3 m/s 482 mmHg 24%
    14:00 +7°C° 0 mm 4 m/s 482 mmHg 23%
    15:00 +6°C° 0 mm 4 m/s 482 mmHg 25%
    16:00 +6°C° 0 mm 4 m/s 481 mmHg 26%
    17:00 +6°C° 0 mm 4 m/s 481 mmHg 28%
    18:00 +4°C° 0 mm 3 m/s 481 mmHg 34%
    19:00 +3°C° 0 mm 3 m/s 480 mmHg 40%
    20:00 +3°C° 0 mm 2 m/s 480 mmHg 45%
    21:00 +3°C° 0 mm 2 m/s 480 mmHg 48%
    22:00 +2°C° 0 mm 2 m/s 480 mmHg 50%
    23:00 +2°C° 0 mm 2 m/s 480 mmHg 52%

    30 Setembro, Sábado

    Tempo Temperatura Precipitação Vento Pressão Humidade
    00:00 +2°C° 0 mm 2 m/s 479 mmHg 52%
    01:00 +1°C° 0 mm 2 m/s 479 mmHg 52%
    02:00 +1°C° 0 mm 2 m/s 479 mmHg 53%
    03:00 +1°C° 0 mm 2 m/s 478 mmHg 51%
    04:00 -1°C° 0 mm 2 m/s 478 mmHg 50%
    05:00 -1°C° 0 mm 2 m/s 478 mmHg 49%
    06:00 +1°C° 0 mm 2 m/s 479 mmHg 43%
    07:00 +3°C° 0 mm 1 m/s 480 mmHg 38%
    08:00 +4°C° 0 mm 1 m/s 481 mmHg 32%
    09:00 +4°C° 0 mm 2 m/s 481 mmHg 27%
    10:00 +6°C° 0 mm 2 m/s 482 mmHg 23%
    11:00 +7°C° 0 mm 2 m/s 483 mmHg 19%
    12:00 +8°C° 0 mm 2 m/s 483 mmHg 18%
    13:00 +8°C° 0 mm 3 m/s 483 mmHg 17%
    14:00 +9°C° 0 mm 3 m/s 483 mmHg 17%
    15:00 +8°C° 0 mm 3 m/s 483 mmHg 19%
    16:00 +8°C° 0 mm 3 m/s 483 mmHg 20%
    17:00 +7°C° 0 mm 3 m/s 483 mmHg 22%
    18:00 +5°C° 0 mm 3 m/s 482 mmHg 27%
    19:00 +5°C° 0 mm 2 m/s 482 mmHg 32%
    20:00 +4°C° 0 mm 2 m/s 481 mmHg 37%
    21:00 +3°C° 0 mm 2 m/s 481 mmHg 39%
    22:00 +4°C° 0 mm 1 m/s 480 mmHg 40%
    23:00 +3°C° 0 mm 1 m/s 480 mmHg 42%
    Mostrar mais